Content
SEND FEEDBACK

Daily
Averages
Monthly
Summary
Mexico

CHETUMAL - AIRPORT, QUINTANA ROO


Home > North America > Mexico > Quintana Roo
Elevation: 36 feet     Latitude: 18 30N     Longitude: 088 19W

WEATHER
 
SELECT A DAY
Number of Records: 122,218;   Date Range: 1/1/95 - 7/28/14
 
SHARE

PRINT THIS DATA

[ ← Previous Day ]
WEATHER ALMANAC - DECEMBER 17, 2013
[ Next Day → ]
[ °C ]   °F
Weather ElementAverageHighLow
Temperature74.7 °F83 °F (2:45 pm)69.8 °F (6:40 am)
Dewpoint68 °F73 °F (2:45 pm)62.6 °F (6:40 am)
Humidity79.1 %96 % (8:45 pm)64 % (2:45 pm)
Barometer30.06 in30.13 in (8:40 am)29.84 in (8:50 am)
Wind Speed7.6 mph11.5 mph (6:40 am)
Weather ElementAverage
Visibility5.7 mi
Wind DirectionWNW (275.7 °)

Weather ElementTotal
Precipitation---
Cooling Degree Days11.4 (Base 65)
Growing Degree Days26.4 (Base 50)
Averaged from 23 records on December 17, 2013
WEATHER CONDITIONS BREAKOUT
WIND DIRECTION BREAKOUT
WEATHER BY HOUR - DECEMBER 17, 2013
[ °C ]   °F
Local TimeTemperatureDewpointHumidityBarometerVisibilityWind DirectionWind SpeedGust SpeedPrecipitationEventsConditions
6:40 AM69.8 °F62.6 °F78 %30.09 in5.0 miNorth (350°)11.5 mphOvercast
7:40 AM69.8 °F62.6 °F78 %30.11 in5.0 miNorth (350°)11.5 mphOvercast
8:40 AM71.6 °F62.6 °F73 %30.13 in5.0 miNorth (350°)11.5 mphOvercast
8:50 AM73.0 °F70.0 °F86 %29.84 in6.0 miNNW (340°)4.5 mphOvercast
9:40 AM73.4 °F62.6 °F69 %30.12 in5.0 miNorth (350°)11.5 mphOvercast
10:40 AM75.2 °F64.4 °F69 %30.10 in5.0 miNorth (350°)11.5 mphOvercast
11:40 AM77.0 °F66.2 °F69 %30.09 in5.0 miNorth (350°)9.2 mphOvercast
11:50 AM80.0 °F71.0 °F69 %30.09 in6.0 miNorth6.7 mphMostly Cloudy
12:40 PM78.8 °F68.0 °F69 %30.06 in5.0 miNorth (350°)9.2 mphOvercast
1:40 PM78.8 °F68.0 °F69 %30.03 in6.0 miNorth (350°)6.9 mphOvercast
2:40 PM78.8 °F68.0 °F69 %30.02 in6.0 miNorth (350°)6.9 mphMostly Cloudy
2:45 PM83.0 °F73.0 °F64 %30.02 in6.0 miNorth6.7 mphPartly Cloudy
3:40 PM73.4 °F68.0 °F83 %30.03 in4.0 miNorth (360°)6.9 mphRainRain
4:04 PM73.4 °F68.0 °F83 %30.03 in7.0 miNorth (360°)6.9 mphMostly Cloudy
4:41 PM73.4 °F68.0 °F83 %30.03 in7.0 miNorth (360°)6.9 mphOvercast
5:41 PM73.4 °F68.0 °F83 %30.05 in7.0 miNorth (360°)6.9 mphOvercast
5:50 PM74.0 °F73.0 °F94 %30.06 in5.0 miNorth4.5 mphRainLight Rain
6:00 PM74.0 °F73.0 °F94 %30.06 in5.0 miNorth4.5 mphRainLight Rain
6:41 PM73.4 °F68.0 °F83 %30.06 in7.0 miNorth (360°)6.9 mphOvercast
7:41 PM73.4 °F68.0 °F83 %30.09 in7.0 miNorth (360°)6.9 mphOvercast
8:41 PM73.4 °F68.0 °F83 %30.10 in7.0 miNorth (360°)6.9 mphOvercast
8:45 PM73.0 °F72.0 °F96 %30.12 in5.0 miNNW (330°)4.5 mphOvercast
11:45 PM73.0 °F71.0 °F93 %30.11 in5.0 miNorth4.5 mphOvercast
Hourly data recorded from MMCM, located miles away from Chetumal - Airport, Quintana Roo







STORIES FROM OUR PARTNERS